When you browse on this site, cookies collect data to enhance your experience and personalize the content and advertising you see.
Visit our Privacy Policy to learn more. By continuing to use the site, you agree to this use of cookies and data.
  • In Switzerland
  • List of Countries
  • For 7 days
  • Water Temperature
  • Weather Map
  • Weather Widgets
  • user-avatar
    Login

    Hourly Weather Xinzhou

    Today, 31 May, Sunday

    Time Temperature Precipitation Wind Pressure Humidity
    00:00 +13°C° 0 mm 0 mps 689 mmHg 90%
    01:00 +13°C° 0 mm 0 mps 688 mmHg 90%
    02:00 +13°C° 0 mm 0 mps 688 mmHg 92%
    03:00 +13°C° 0 mm 0 mps 688 mmHg 91%
    04:00 +12°C° 0 mm 0 mps 689 mmHg 90%
    05:00 +12°C° 0 mm 0 mps 689 mmHg 90%
    06:00 +15°C° 0 mm 2 mps 689 mmHg 77%
    07:00 +16°C° 0 mm 3 mps 690 mmHg 64%
    08:00 +18°C° 0 mm 4 mps 690 mmHg 50%
    09:00 +19°C° 0 mm 5 mps 691 mmHg 42%
    10:00 +21°C° 0 mm 6 mps 691 mmHg 34%
    11:00 +22°C° 0 mm 6 mps 691 mmHg 26%
    12:00 +23°C° 0 mm 6 mps 691 mmHg 24%
    13:00 +24°C° 0 mm 6 mps 690 mmHg 21%
    14:00 +26°C° 0 mm 5 mps 690 mmHg 19%
    15:00 +26°C° 0 mm 4 mps 690 mmHg 18%
    16:00 +26°C° 0 mm 4 mps 690 mmHg 18%
    17:00 +26°C° 0 mm 3 mps 690 mmHg 17%
    18:00 +25°C° 0 mm 2 mps 690 mmHg 20%
    19:00 +23°C° 0 mm 1 mps 690 mmHg 22%
    20:00 +21°C° 0 mm 1 mps 689 mmHg 25%
    21:00 +20°C° 0 mm 1 mps 690 mmHg 25%
    22:00 +20°C° 0 mm 1 mps 690 mmHg 26%
    23:00 +19°C° 0 mm 1 mps 690 mmHg 26%

    Tomorrow, 1 June, Monday

    Time Temperature Precipitation Wind Pressure Humidity
    00:00 +19°C° 0 mm 1 mps 690 mmHg 27%
    01:00 +18°C° 0 mm 1 mps 690 mmHg 28%
    02:00 +18°C° 0 mm 1 mps 689 mmHg 29%
    03:00 +16°C° 0 mm 1 mps 689 mmHg 29%
    04:00 +16°C° 0 mm 1 mps 689 mmHg 30%
    05:00 +16°C° 0 mm 1 mps 689 mmHg 31%
    06:00 +18°C° 0 mm 1 mps 689 mmHg 30%
    07:00 +20°C° 0 mm 1 mps 689 mmHg 29%
    08:00 +21°C° 0 mm 1 mps 689 mmHg 28%
    09:00 +23°C° 0.1 mm 2 mps 689 mmHg 27%
    10:00 +25°C° 0.1 mm 3 mps 688 mmHg 26%
    11:00 +26°C° 0.1 mm 4 mps 688 mmHg 25%
    12:00 +28°C° 0 mm 7 mps 687 mmHg 23%
    13:00 +31°C° 0 mm 9 mps 687 mmHg 22%
    14:00 +33°C° 0 mm 11 mps 686 mmHg 20%
    15:00 +32°C° 0 mm 11 mps 686 mmHg 17%
    16:00 +31°C° 0 mm 11 mps 685 mmHg 14%
    17:00 +31°C° 0 mm 12 mps 685 mmHg 12%
    18:00 +28°C° 0 mm 10 mps 685 mmHg 15%
    19:00 +26°C° 0 mm 8 mps 685 mmHg 19%
    20:00 +23°C° 0 mm 6 mps 685 mmHg 23%
    21:00 +22°C° 0 mm 4 mps 685 mmHg 25%
    22:00 +20°C° 0 mm 3 mps 686 mmHg 27%
    23:00 +20°C° 0 mm 1 mps 686 mmHg 29%

    Day after tomorrow, 2 June, Tuesday

    Time Temperature Precipitation Wind Pressure Humidity
    00:00 +19°C° 0 mm 2 mps 686 mmHg 30%
    01:00 +18°C° 0 mm 2 mps 686 mmHg 32%
    02:00 +18°C° 0 mm 3 mps 686 mmHg 33%
    03:00 +18°C° 0 mm 3 mps 686 mmHg 34%
    04:00 +18°C° 0 mm 2 mps 686 mmHg 35%
    05:00 +18°C° 0 mm 2 mps 686 mmHg 36%
    06:00 +19°C° 0 mm 2 mps 687 mmHg 34%
    07:00 +22°C° 0 mm 1 mps 687 mmHg 31%
    08:00 +24°C° 0 mm 1 mps 687 mmHg 29%
    09:00 +26°C° 0 mm 2 mps 688 mmHg 26%
    10:00 +28°C° 0 mm 3 mps 688 mmHg 22%
    11:00 +29°C° 0 mm 3 mps 688 mmHg 19%
    12:00 +30°C° 0 mm 4 mps 688 mmHg 18%
    13:00 +33°C° 0 mm 5 mps 687 mmHg 16%
    14:00 +34°C° 0 mm 5 mps 687 mmHg 14%
    15:00 +33°C° 0 mm 5 mps 687 mmHg 14%
    16:00 +33°C° 0 mm 5 mps 686 mmHg 14%
    17:00 +33°C° 0 mm 5 mps 686 mmHg 14%
    18:00 +30°C° 0 mm 5 mps 685 mmHg 16%
    19:00 +29°C° 0 mm 5 mps 685 mmHg 18%
    20:00 +27°C° 0 mm 4 mps 684 mmHg 21%
    21:00 +26°C° 0 mm 4 mps 685 mmHg 20%
    22:00 +26°C° 0 mm 4 mps 685 mmHg 19%
    23:00 +25°C° 0 mm 4 mps 685 mmHg 19%

    3 June, Wednesday

    Time Temperature Precipitation Wind Pressure Humidity
    00:00 +24°C° 0 mm 3 mps 685 mmHg 20%
    01:00 +22°C° 0 mm 3 mps 685 mmHg 21%
    02:00 +21°C° 0 mm 2 mps 685 mmHg 23%
    03:00 +21°C° 0 mm 1 mps 685 mmHg 25%
    04:00 +21°C° 0 mm 1 mps 685 mmHg 27%
    05:00 +20°C° 0 mm 1 mps 685 mmHg 30%
    06:00 +22°C° 0 mm 1 mps 686 mmHg 28%
    07:00 +24°C° 0 mm 1 mps 686 mmHg 27%
    08:00 +25°C° 0 mm 1 mps 687 mmHg 26%
    09:00 +27°C° 0 mm 1 mps 687 mmHg 23%
    10:00 +29°C° 0 mm 1 mps 687 mmHg 21%
    11:00 +31°C° 0 mm 1 mps 688 mmHg 19%
    12:00 +32°C° 0 mm 2 mps 687 mmHg 18%
    13:00 +34°C° 0 mm 2 mps 687 mmHg 17%
    14:00 +35°C° 0 mm 3 mps 687 mmHg 16%
    15:00 +35°C° 0 mm 2 mps 686 mmHg 16%
    16:00 +35°C° 0 mm 2 mps 686 mmHg 15%
    17:00 +34°C° 0 mm 1 mps 686 mmHg 15%
    18:00 +33°C° 0 mm 1 mps 685 mmHg 17%
    19:00 +31°C° 0 mm 1 mps 685 mmHg 19%
    20:00 +29°C° 0 mm 1 mps 685 mmHg 22%
    21:00 +28°C° 0 mm 1 mps 685 mmHg 22%
    22:00 +27°C° 0 mm 2 mps 685 mmHg 23%
    23:00 +26°C° 0 mm 2 mps 685 mmHg 23%

    4 June, Thursday

    Time Temperature Precipitation Wind Pressure Humidity
    00:00 +26°C° 0 mm 1 mps 685 mmHg 24%
    01:00 +25°C° 0 mm 1 mps 684 mmHg 25%
    02:00 +24°C° 0 mm 1 mps 684 mmHg 26%
    03:00 +24°C° 0 mm 1 mps 684 mmHg 26%
    04:00 +23°C° 0 mm 1 mps 684 mmHg 27%
    05:00 +23°C° 0 mm 1 mps 684 mmHg 27%
    06:00 +25°C° 0 mm 1 mps 684 mmHg 25%
    07:00 +27°C° 0 mm 2 mps 685 mmHg 23%
    08:00 +29°C° 0 mm 2 mps 685 mmHg 21%
    09:00 +32°C° 0 mm 4 mps 685 mmHg 18%
    10:00 +35°C° 0 mm 5 mps 685 mmHg 15%
    11:00 +38°C° 0 mm 7 mps 685 mmHg 12%
    12:00 +39°C° 0 mm 7 mps 685 mmHg 11%
    13:00 +39°C° 0 mm 8 mps 684 mmHg 10%
    14:00 +40°C° 0 mm 8 mps 684 mmHg 8%
    15:00 +40°C° 0 mm 8 mps 683 mmHg 8%
    16:00 +40°C° 0 mm 7 mps 683 mmHg 8%
    17:00 +40°C° 0 mm 7 mps 682 mmHg 8%
    18:00 +36°C° 0 mm 6 mps 683 mmHg 11%
    19:00 +34°C° 0 mm 5 mps 683 mmHg 14%
    20:00 +32°C° 0 mm 4 mps 683 mmHg 17%
    21:00 +29°C° 0 mm 4 mps 684 mmHg 21%
    22:00 +27°C° 0 mm 4 mps 685 mmHg 25%
    23:00 +25°C° 0 mm 4 mps 685 mmHg 29%

    5 June, Friday

    Time Temperature Precipitation Wind Pressure Humidity
    00:00 +23°C° 0 mm 4 mps 686 mmHg 31%
    01:00 +22°C° 0 mm 3 mps 686 mmHg 34%
    02:00 +21°C° 0 mm 3 mps 686 mmHg 37%
    03:00 +20°C° 0 mm 3 mps 686 mmHg 39%
    04:00 +19°C° 0 mm 2 mps 687 mmHg 41%
    05:00 +19°C° 0 mm 2 mps 687 mmHg 43%
    06:00 +20°C° 0 mm 2 mps 687 mmHg 41%
    07:00 +21°C° 0 mm 2 mps 688 mmHg 39%
    08:00 +24°C° 0 mm 2 mps 689 mmHg 36%
    09:00 +25°C° 0 mm 2 mps 689 mmHg 33%
    10:00 +27°C° 0 mm 2 mps 689 mmHg 30%
    11:00 +29°C° 0 mm 2 mps 689 mmHg 27%
    12:00 +30°C° 0 mm 2 mps 689 mmHg 24%
    13:00 +31°C° 0 mm 2 mps 689 mmHg 22%
    14:00 +32°C° 0 mm 2 mps 688 mmHg 19%
    15:00 +32°C° 0 mm 2 mps 688 mmHg 19%
    16:00 +34°C° 0 mm 3 mps 688 mmHg 20%
    17:00 +34°C° 0 mm 3 mps 688 mmHg 20%
    18:00 +30°C° 0 mm 3 mps 688 mmHg 24%
    19:00 +28°C° 0 mm 3 mps 688 mmHg 28%
    20:00 +26°C° 0 mm 3 mps 688 mmHg 32%
    21:00 +25°C° 0 mm 2 mps 688 mmHg 33%
    22:00 +24°C° 0 mm 2 mps 688 mmHg 34%
    23:00 +23°C° 0 mm 1 mps 689 mmHg 36%
    Show more